sat.trackr.live / text

‹ back to catalog

YAOGAN-36 01C

NORAD 53947 · 2022-120E

PAYLOAD ACTIVE UNKNOWN

§ Identity

Operator
Country
PRC
Launch date
2022-09-26
Launch site
XICLF
Launch vehicle
Mass (kg)
RCS (m²)

External: N2YO · Heavens-Above · Gunter

§ Orbital elements

Epoch: 2026-05-25T02:37:38.558784Z

Period
93.70 min
Inclination
35.0046°
Eccentricity
0.0005436
Mean motion
15.36771285 rev/d
Perigee alt
451.9 km
Apogee alt
459.4 km
Semi-major
6,833.8 km
B*
5.7011e-4
RAAN
26.5091°
Arg perigee
295.4122°
Mean anomaly
64.6034°
Rev number
20,424

§ Raw data

YAOGAN-36 01C1 53947U 22120E   26145.10947406  .00021073  00000+0  57011-3 0  99932 53947  35.0046  26.5091 0005436 295.4122  64.6034 15.36771285204244

JSON: /api/v1/satellites/53947 · /tle

For live sub-satellite position, see the globe view (requires WebGL).

§ Visibility from observer

Set your observer location to see the next 7 days of passes ≥ 10°. The values pass through the URL so the page stays shareable.

No JS? Fill the form by hand. The geolocation button needs JavaScript.